Year,Month,Day,Hour,Minute,Value (Times are PST for windgust in km/hr)
2020,11,16,11,30,4.80
2020,11,16,11,31,4.80
2020,11,16,11,45,6.40
2020,11,16,11,46,6.40
2020,11,16,11,47,6.40
2020,11,16,11,48,4.80
2020,11,16,11,49,4.80
2020,11,16,11,50,3.20
2020,11,16,11,57,1.60
2020,11,16,12,00,1.60
2020,11,16,12,01,4.80
2020,11,16,12,02,6.40
2020,11,16,12,03,6.40
2020,11,16,12,04,6.40
2020,11,16,12,05,4.80
2020,11,16,12,06,1.60
2020,11,16,12,09,4.80
2020,11,16,12,10,1.60
2020,11,16,12,11,1.60
2020,11,16,12,12,1.60
2020,11,16,12,40,4.80
2020,11,16,12,41,4.80
2020,11,16,12,44,4.80
2020,11,16,12,48,1.60
2020,11,16,12,51,1.60
2020,11,16,12,54,1.60
2020,11,16,12,55,1.60
2020,11,16,12,56,4.80
2020,11,16,13,03,3.20
2020,11,16,13,04,6.40
2020,11,16,13,05,4.80
2020,11,16,13,10,4.80
2020,11,16,13,11,1.60
2020,11,16,13,12,4.80
2020,11,16,13,13,9.60
2020,11,16,13,14,8.10
2020,11,16,13,16,4.80
2020,11,16,13,17,8.10
2020,11,16,13,18,4.80
2020,11,16,13,19,8.10
2020,11,16,13,21,11.30
2020,11,16,13,22,19.30
2020,11,16,13,23,19.30
2020,11,16,13,24,14.50
2020,11,16,13,25,17.70
2020,11,16,13,26,20.90
2020,11,16,13,27,19.30
2020,11,16,13,28,20.90
2020,11,16,13,29,12.90
2020,11,16,13,30,25.70
2020,11,16,13,31,27.40
2020,11,16,13,32,12.90
2020,11,16,13,33,19.30
2020,11,16,13,34,22.50
2020,11,16,13,35,16.10
2020,11,16,13,36,20.90
2020,11,16,13,37,20.90
2020,11,16,13,38,32.20
2020,11,16,13,39,29.00
2020,11,16,13,40,22.50
2020,11,16,13,41,16.10
2020,11,16,13,42,14.50
2020,11,16,13,43,25.70
2020,11,16,13,44,17.70
2020,11,16,13,45,16.10
2020,11,16,13,46,9.60
2020,11,16,13,47,9.60
2020,11,16,13,48,11.30
2020,11,16,13,49,14.50
2020,11,16,13,50,16.10
2020,11,16,13,51,27.40
2020,11,16,13,52,30.60
2020,11,16,13,53,37.00
2020,11,16,13,54,25.70
2020,11,16,13,55,22.50
2020,11,16,13,56,14.50
2020,11,16,13,57,14.50
2020,11,16,13,58,29.00
2020,11,16,13,59,20.90
2020,11,16,14,00,20.90
2020,11,16,14,01,16.10
2020,11,16,14,02,17.70
2020,11,16,14,03,29.00
2020,11,16,14,04,17.70
2020,11,16,14,05,25.70
2020,11,16,14,06,22.50
2020,11,16,14,07,19.30
2020,11,16,14,08,22.50
2020,11,16,14,09,12.90
2020,11,16,14,10,11.30
2020,11,16,14,11,27.40
2020,11,16,14,12,11.30
2020,11,16,14,13,16.10
2020,11,16,14,14,17.70
2020,11,16,14,15,14.50
2020,11,16,14,16,9.60
2020,11,16,14,17,19.30
2020,11,16,14,18,16.10
2020,11,16,14,19,29.00
2020,11,16,14,20,20.90
2020,11,16,14,21,24.20
2020,11,16,14,22,20.90
2020,11,16,14,23,17.70
2020,11,16,14,24,16.10
2020,11,16,14,25,20.90
2020,11,16,14,26,22.50
2020,11,16,14,27,29.00
2020,11,16,14,28,25.70
2020,11,16,14,29,30.60
2020,11,16,14,30,20.90
2020,11,16,14,31,17.70
2020,11,16,14,32,11.30
2020,11,16,14,33,12.90
2020,11,16,14,34,19.30
2020,11,16,14,35,29.00
2020,11,16,14,36,35.40
2020,11,16,14,37,29.00
2020,11,16,14,38,37.00
2020,11,16,14,39,16.10
2020,11,16,14,40,16.10
2020,11,16,14,41,14.50
2020,11,16,14,42,12.90
2020,11,16,14,43,12.90
2020,11,16,14,44,12.90
2020,11,16,14,45,9.60
2020,11,16,14,46,27.40
2020,11,16,14,47,29.00
2020,11,16,14,48,16.10
2020,11,16,14,49,16.10
2020,11,16,14,50,20.90
2020,11,16,14,51,22.50
2020,11,16,14,52,9.60
2020,11,16,14,53,8.10
2020,11,16,14,54,11.30
2020,11,16,14,55,8.10
2020,11,16,14,56,17.70
2020,11,16,14,57,27.40
2020,11,16,14,58,12.90
2020,11,16,14,59,12.90
2020,11,16,15,00,19.30
2020,11,16,15,01,11.30
2020,11,16,15,02,17.70
2020,11,16,15,03,9.60
2020,11,16,15,04,17.70
2020,11,16,15,05,14.50
2020,11,16,15,06,25.70
2020,11,16,15,07,11.30
2020,11,16,15,08,6.40
2020,11,16,15,09,8.10
2020,11,16,15,10,16.10
2020,11,16,15,11,12.90
2020,11,16,15,12,27.40
2020,11,16,15,13,17.70
2020,11,16,15,14,22.50
2020,11,16,15,15,20.90
2020,11,16,15,16,16.10
2020,11,16,15,17,11.30
2020,11,16,15,18,8.10
2020,11,16,15,19,12.90
2020,11,16,15,20,9.60
2020,11,16,15,21,11.30
2020,11,16,15,22,9.60
2020,11,16,15,23,19.30
2020,11,16,15,24,19.30
2020,11,16,15,25,16.10
2020,11,16,15,26,14.50
2020,11,16,15,27,11.30
2020,11,16,15,28,12.90
2020,11,16,15,29,16.10
2020,11,16,15,30,12.90
2020,11,16,15,31,8.10
2020,11,16,15,32,12.90
2020,11,16,15,33,9.60
2020,11,16,15,34,9.60
2020,11,16,15,35,11.30
2020,11,16,15,36,11.30
2020,11,16,15,37,9.60
2020,11,16,15,38,12.90
2020,11,16,15,39,12.90
2020,11,16,15,40,19.30
2020,11,16,15,41,24.20
2020,11,16,15,42,12.90
2020,11,16,15,43,14.50
2020,11,16,15,44,14.50
2020,11,16,15,45,20.90
2020,11,16,15,46,24.20
2020,11,16,15,47,24.20
2020,11,16,15,48,9.60
2020,11,16,15,49,24.20
2020,11,16,15,50,20.90
2020,11,16,15,51,27.40
2020,11,16,15,52,19.30
2020,11,16,15,53,12.90
2020,11,16,15,54,4.80
2020,11,16,15,55,4.80
2020,11,16,15,56,4.80
2020,11,16,15,57,9.60
2020,11,16,15,58,22.50
2020,11,16,15,59,19.30
2020,11,16,16,00,12.90
2020,11,16,16,01,24.20
2020,11,16,16,02,20.90
2020,11,16,16,03,20.90
2020,11,16,16,04,14.50
2020,11,16,16,05,20.90
2020,11,16,16,06,22.50
2020,11,16,16,07,20.90
2020,11,16,16,08,17.70
2020,11,16,16,09,12.90
2020,11,16,16,10,24.20
2020,11,16,16,11,22.50
2020,11,16,16,12,24.20
2020,11,16,16,13,16.10
2020,11,16,16,14,11.30
2020,11,16,16,15,14.50
2020,11,16,16,16,20.90
2020,11,16,16,17,29.00
2020,11,16,16,18,16.10
2020,11,16,16,19,24.20
2020,11,16,16,20,25.70
2020,11,16,16,21,17.70
2020,11,16,16,22,20.90
2020,11,16,16,23,12.90
2020,11,16,16,24,20.90
2020,11,16,16,25,17.70
2020,11,16,16,26,20.90
2020,11,16,16,27,16.10
2020,11,16,16,28,16.10
2020,11,16,16,29,25.70
2020,11,16,16,30,24.20
2020,11,16,16,31,29.00
2020,11,16,16,32,25.70
2020,11,16,16,33,29.00
2020,11,16,16,34,29.00
2020,11,16,16,35,25.70
2020,11,16,16,36,29.00
2020,11,16,16,37,24.20
2020,11,16,16,38,16.10
2020,11,16,16,39,20.90
2020,11,16,16,40,17.70
2020,11,16,16,41,17.70
2020,11,16,16,42,22.50
2020,11,16,16,43,35.40
2020,11,16,16,44,22.50
2020,11,16,16,45,27.40
2020,11,16,16,46,29.00
2020,11,16,16,47,29.00
2020,11,16,16,48,27.40
2020,11,16,16,49,27.40
2020,11,16,16,50,24.20
2020,11,16,16,51,19.30
2020,11,16,16,52,22.50
2020,11,16,16,53,20.90
2020,11,16,16,54,27.40
2020,11,16,16,55,29.00
2020,11,16,16,56,25.70
2020,11,16,16,57,24.20
2020,11,16,16,58,16.10
2020,11,16,16,59,30.60
2020,11,16,17,00,29.00
2020,11,16,17,01,22.50
2020,11,16,17,02,25.70
2020,11,16,17,03,25.70
2020,11,16,17,04,17.70
2020,11,16,17,05,24.20
2020,11,16,17,06,27.40
2020,11,16,17,07,22.50
2020,11,16,17,08,24.20
2020,11,16,17,09,17.70
2020,11,16,17,10,16.10
2020,11,16,17,11,25.70
2020,11,16,17,12,24.20
2020,11,16,17,13,29.00
2020,11,16,17,14,22.50
2020,11,16,17,15,30.60
2020,11,16,17,16,30.60
2020,11,16,17,17,22.50
2020,11,16,17,18,25.70
2020,11,16,17,19,27.40
2020,11,16,17,20,27.40
2020,11,16,17,21,29.00
2020,11,16,17,22,25.70
2020,11,16,17,23,25.70
2020,11,16,17,24,24.20
2020,11,16,17,25,32.20
2020,11,16,17,26,27.40
2020,11,16,17,27,24.20
2020,11,16,17,28,24.20
2020,11,16,17,29,27.40
2020,11,16,17,30,32.20
2020,11,16,17,31,29.00
2020,11,16,17,32,38.60
2020,11,16,17,33,20.90
2020,11,16,17,34,20.90
2020,11,16,17,35,22.50
2020,11,16,17,36,30.60
2020,11,16,17,37,25.70
2020,11,16,17,38,33.80
2020,11,16,17,39,35.40
2020,11,16,17,40,24.20
2020,11,16,17,41,32.20
2020,11,16,17,42,24.20
2020,11,16,17,43,25.70
2020,11,16,17,44,20.90
2020,11,16,17,45,17.70
2020,11,16,17,46,22.50
2020,11,16,17,47,17.70
2020,11,16,17,48,14.50
2020,11,16,17,49,9.60
2020,11,16,17,50,9.60
2020,11,16,17,51,9.60
2020,11,16,17,52,9.60
2020,11,16,17,53,9.60
2020,11,16,17,54,17.70
2020,11,16,17,55,11.30
2020,11,16,17,56,12.90
2020,11,16,17,57,16.10
2020,11,16,17,58,17.70
2020,11,16,17,59,20.90
2020,11,16,18,00,24.20
2020,11,16,18,01,17.70
2020,11,16,18,02,12.90
2020,11,16,18,03,9.60
2020,11,16,18,04,24.20
2020,11,16,18,05,17.70
2020,11,16,18,06,16.10
2020,11,16,18,07,16.10
2020,11,16,18,08,12.90
2020,11,16,18,09,9.60
2020,11,16,18,10,6.40
2020,11,16,18,11,20.90
2020,11,16,18,12,8.10
2020,11,16,18,13,6.40
2020,11,16,18,14,3.20
2020,11,16,18,15,19.30
2020,11,16,18,16,11.30
2020,11,16,18,17,6.40
2020,11,16,18,18,8.10
2020,11,16,18,19,19.30
2020,11,16,18,20,9.60
2020,11,16,18,21,14.50
2020,11,16,18,22,9.60
2020,11,16,18,23,8.10
2020,11,16,18,24,6.40
2020,11,16,18,25,3.20
2020,11,16,18,26,3.20
2020,11,16,18,27,3.20
2020,11,16,18,28,3.20
2020,11,16,18,29,3.20
2020,11,16,18,30,8.10
2020,11,16,18,31,8.10
2020,11,16,18,32,9.60
2020,11,16,18,33,9.60
2020,11,16,18,34,11.30
2020,11,16,18,35,14.50
2020,11,16,18,36,8.10
2020,11,16,18,37,9.60
2020,11,16,18,38,8.10
2020,11,16,18,39,9.60
2020,11,16,18,40,8.10
2020,11,16,18,41,4.80
2020,11,16,18,42,3.20
2020,11,16,18,43,8.10
2020,11,16,18,44,3.20
2020,11,16,18,45,3.20
2020,11,16,18,46,6.40
2020,11,16,18,47,1.60
2020,11,16,18,48,3.20
2020,11,16,18,49,4.80
2020,11,16,18,50,3.20
2020,11,16,18,51,3.20
2020,11,16,18,52,4.80
2020,11,16,18,53,6.40
2020,11,16,18,54,3.20
2020,11,16,18,55,1.60
2020,11,16,18,56,8.10
2020,11,16,18,57,11.30
2020,11,16,18,58,6.40
2020,11,16,18,59,8.10
2020,11,16,19,00,6.40
2020,11,16,19,01,9.60
2020,11,16,19,02,9.60
2020,11,16,19,03,8.10
2020,11,16,19,04,8.10
2020,11,16,19,05,3.20
2020,11,16,19,06,3.20
2020,11,16,19,07,3.20
2020,11,16,19,08,3.20
2020,11,16,19,09,1.60
2020,11,16,19,10,1.60
2020,11,16,19,11,3.20
2020,11,16,19,13,1.60
2020,11,16,19,14,4.80
2020,11,16,19,15,6.40
2020,11,16,19,16,6.40
2020,11,16,19,17,11.30
2020,11,16,19,18,11.30
2020,11,16,19,19,6.40
2020,11,16,19,20,11.30
2020,11,16,19,21,11.30
2020,11,16,19,22,9.60
2020,11,16,19,23,8.10
2020,11,16,19,24,6.40
2020,11,16,19,25,6.40
2020,11,16,19,26,8.10
2020,11,16,19,27,6.40
2020,11,16,19,28,4.80
2020,11,16,19,29,6.40
2020,11,16,19,30,8.10
2020,11,16,19,31,4.80
2020,11,16,19,32,1.60
2020,11,16,19,33,3.20
2020,11,16,19,34,4.80
2020,11,16,19,35,8.10
2020,11,16,19,36,4.80
2020,11,16,19,37,4.80
2020,11,16,19,38,4.80
2020,11,16,19,39,8.10
2020,11,16,19,40,6.40
2020,11,16,19,41,8.10
2020,11,16,19,42,4.80
2020,11,16,19,43,4.80
2020,11,16,19,44,6.40
2020,11,16,19,45,8.10
2020,11,16,19,46,9.60
2020,11,16,19,47,11.30
2020,11,16,19,48,8.10
2020,11,16,19,49,11.30
2020,11,16,19,50,14.50
2020,11,16,19,51,11.30
2020,11,16,19,52,8.10
2020,11,16,19,53,6.40
2020,11,16,19,54,9.60
2020,11,16,19,55,9.60
2020,11,16,19,56,8.10
2020,11,16,19,57,8.10
2020,11,16,19,58,6.40
2020,11,16,19,59,6.40
2020,11,16,20,00,1.60
2020,11,16,20,01,3.20
2020,11,16,20,02,4.80
2020,11,16,20,03,8.10
2020,11,16,20,04,6.40
2020,11,16,20,05,6.40
2020,11,16,20,06,6.40
2020,11,16,20,07,6.40
2020,11,16,20,08,8.10
2020,11,16,20,09,6.40
2020,11,16,20,10,8.10
2020,11,16,20,11,6.40
2020,11,16,20,12,4.80
2020,11,16,20,13,3.20
2020,11,16,20,14,3.20
2020,11,16,20,15,1.60
2020,11,16,20,16,1.60
2020,11,16,20,17,4.80
2020,11,16,20,18,6.40
2020,11,16,20,19,6.40
2020,11,16,20,20,6.40
2020,11,16,20,21,4.80
2020,11,16,20,22,6.40
2020,11,16,20,23,4.80
2020,11,16,20,24,8.10
2020,11,16,20,25,6.40
2020,11,16,21,23,4.80
2020,11,16,21,24,4.80
2020,11,16,21,25,3.20
2020,11,16,21,26,3.20
2020,11,16,21,27,3.20
2020,11,16,21,28,3.20
2020,11,16,21,29,3.20
2020,11,16,23,48,4.80
2020,11,16,23,49,4.80
2020,11,16,23,50,6.40
2020,11,16,23,51,6.40
2020,11,16,23,52,4.80
2020,11,16,23,55,4.80
2020,11,16,23,56,4.80
2020,11,16,23,57,3.20
2020,11,16,23,58,1.60
